KD5NDU-15 Weather Reports


time (UTC)temp
C
wind
direction
speed
KPH
gust
KPH
rain 1hr
cm
rain 24hr
cm
rain mn
cm
humidity
%
barometer
mb
20260904152133 33 150 1.6 6.4 0.00 0.00 0.00 68 1016.7
20260904151633 33 198 1.6 4.8 0.00 0.00 0.00 68 1016.8
20260904151133 33 262 1.6 4.8 0.00 0.00 0.00 70 1016.8
20260904150633 33 156 1.6 3.2 0.00 0.00 0.00 69 1016.6
20260904150133 33 193 3.2 4.8 0.00 0.00 0.00 71 1016.6
20260904145633 32 143 1.6 4.8 0.00 0.00 0.00 71 1016.8
20260904145133 32 231 1.6 1.6 0.00 0.00 0.00 73 1016.8
20260904144633 31 229 3.2 4.8 0.00 0.00 0.00 74 1016.7
20260904144133 31 229 4.8 6.4 0.00 0.00 0.00 74 1016.6
20260904143633 31 229 3.2 11.3 0.00 0.00 0.00 73 1016.5
20260904143133 31 221 1.6 9.7 0.00 0.00 0.00 74 1016.5
20260904142633 31 215 3.2 6.4 0.00 0.00 0.00 74 1016.5
20260904142133 31 210 1.6 4.8 0.00 0.00 0.00 75 1016.4
20260904141633 30 210 3.2 4.8 0.00 0.00 0.00 76 1016.4
20260904141133 30 205 3.2 6.4 0.00 0.00 0.00 77 1016.5
20260904140633 30 213 3.2 8.0 0.00 0.00 0.00 77 1016.5
20260904140133 29 194 3.2 4.8 0.00 0.00 0.00 80 1016.5
20260904135633 29 193 1.6 6.4 0.00 0.00 0.00 80 1016.4
20260904135133 28 182 1.6 3.2 0.00 0.00 0.00 81 1016.3
20260904134633 28 182 1.6 4.8 0.00 0.00 0.00 81 1016.3
20260904134133 28 166 0.0 3.2 0.00 0.00 0.00 82 1016.4
20260904133633 28 162 0.0 0.0 0.00 0.00 0.00 83 1016.4
20260904133133 27 162 0.0 1.6 0.00 0.00 0.00 85 1016.3
20260904132633 27 162 0.0 1.6 0.00 0.00 0.00 85 1016.3
20260904132133 27 162 0.0 3.2 0.00 0.00 0.00 88 1016.2
20260904131633 26 162 0.0 0.0 0.00 0.00 0.00 91 1016.2
20260904131133 25 162 0.0 0.0 0.00 0.00 0.00 93 1016.3
20260904130633 25 162 0.0 0.0 0.00 0.00 0.00 94 1016.2
20260904130133 25 162 0.0 0.0 0.00 0.00 0.00 94 1016.4
20260904125633 24 162 0.0 0.0 0.00 0.00 0.00 94 1016.3
20260904125133 24 162 0.0 0.0 0.00 0.00 0.00 94 1016.2
20260904124633 24 162 0.0 3.2 0.00 0.00 0.00 94 1016.0
20260904124133 24 162 0.0 0.0 0.00 0.00 0.00 94 1015.9
20260904123633 23 162 0.0 1.6 0.00 0.00 0.00 94 1015.8
20260904123133 23 162 0.0 0.0 0.00 0.00 0.00 94 1015.7
20260904122633 23 162 0.0 1.6 0.00 0.00 0.00 94 1015.7
20260904122133 23 162 0.0 0.0 0.00 0.00 0.00 94 1015.7
20260904121633 23 162 0.0 0.0 0.00 0.00 0.00 94 1015.7
20260904121133 23 162 0.0 0.0 0.00 0.00 0.00 94 1015.7
20260904120633 23 162 0.0 0.0 0.00 0.00 0.00 94 1015.6
20260904120133 23 162 0.0 0.0 0.00 0.00 0.00 94 1015.7
20260904115633 23 162 0.0 0.0 0.00 0.00 0.00 94 1015.5
20260904115133 23 162 0.0 0.0 0.00 0.00 0.00 94 1015.6
20260904114633 23 162 0.0 0.0 0.00 0.00 0.00 94 1015.5
20260904114133 23 162 0.0 1.6 0.00 0.00 0.00 94 1015.5
20260904113633 23 162 0.0 0.0 0.00 0.00 0.00 94 1015.4
20260904113133 23 162 0.0 0.0 0.00 0.00 0.00 94 1015.4
20260904112633 23 162 0.0 3.2 0.00 0.00 0.00 94 1015.3
20260904112133 23 162 0.0 1.6 0.00 0.00 0.00 93 1015.3
20260904111633 23 162 0.0 0.0 0.00 0.00 0.00 93 1015.3
20260904111133 23 162 0.0 0.0 0.00 0.00 0.00 93 1015.2
20260904110633 23 162 0.0 0.0 0.00 0.00 0.00 93 1015.2
20260904110133 23 162 0.0 1.6 0.00 0.00 0.00 93 1015.3
20260904105633 23 162 0.0 1.6 0.00 0.00 0.00 93 1015.2
20260904105133 23 162 1.6 3.2 0.00 0.00 0.00 93 1015.1
20260904104633 23 163 1.6 3.2 0.00 0.00 0.00 93 1015.2
20260904104133 23 159 1.6 4.8 0.00 0.00 0.00 93 1015.1
20260904103633 23 159 1.6 3.2 0.00 0.00 0.00 93 1015.0
20260904103133 23 159 0.0 3.2 0.00 0.00 0.00 93 1015.1
20260904102633 23 159 0.0 3.2 0.00 0.00 0.00 94 1015.1
20260904102133 23 158 0.0 1.6 0.00 0.00 0.00 93 1015.2
20260904101633 23 158 0.0 1.6 0.00 0.00 0.00 93 1015.1
20260904101133 23 158 0.0 0.0 0.00 0.00 0.00 93 1015.1
20260904100633 23 158 1.6 3.2 0.00 0.00 0.00 93 1015.1
20260904100133 23 151 1.6 3.2 0.00 0.00 0.00 93 1015.1
20260904095633 23 150 1.6 1.6 0.00 0.00 0.00 93 1015.0
20260904095133 23 151 1.6 3.2 0.00 0.00 0.00 93 1014.9
20260904094633 23 161 1.6 4.8 0.00 0.00 0.00 94 1015.0
20260904094133 23 151 0.0 4.8 0.00 0.00 0.00 94 1014.9
20260904093633 23 143 0.0 1.6 0.00 0.00 0.00 93 1014.8
20260904093133 23 143 0.0 3.2 0.00 0.00 0.00 94 1014.9
20260904092633 23 79 0.0 3.2 0.00 0.00 0.00 94 1014.9
20260904092133 23 84 0.0 4.8 0.00 0.00 0.00 94 1014.9
20260904091633 23 155 0.0 0.0 0.00 0.00 0.00 94 1014.9
20260904091133 23 172 0.0 0.0 0.00 0.00 0.00 93 1014.9
20260904090633 23 172 0.0 0.0 0.00 0.00 0.00 94 1014.8
20260904090133 23 172 0.0 0.0 0.00 0.00 0.00 94 1014.7
20260904085633 23 173 0.0 0.0 0.00 0.00 0.00 94 1014.7
20260904085133 23 165 0.0 0.0 0.00 0.00 0.00 94 1014.6
20260904084633 23 165 0.0 0.0 0.00 0.00 0.00 94 1014.5
20260904084133 23 165 0.0 0.0 0.00 0.00 0.00 94 1014.6
20260904083633 23 165 0.0 0.0 0.00 0.00 0.00 94 1014.6
20260904083133 23 165 0.0 0.0 0.00 0.00 0.00 94 1014.5
20260904082633 23 165 0.0 0.0 0.00 0.00 0.00 94 1014.6
20260904082133 23 165 0.0 0.0 0.00 0.00 0.00 94 1014.4
20260904081633 23 165 0.0 0.0 0.00 0.00 0.00 94 1014.4
20260904081133 23 165 0.0 0.0 0.00 0.00 0.00 94 1014.4
20260904080633 23 165 0.0 0.0 0.00 0.00 0.00 94 1014.4
20260904080133 23 165 0.0 0.0 0.00 0.00 0.00 94 1014.3
20260904075633 23 165 0.0 0.0 0.00 0.00 0.00 93 1014.4
20260904075133 23 165 0.0 0.0 0.00 0.00 0.00 93 1014.4
20260904074633 23 165 0.0 0.0 0.00 0.00 0.00 93 1014.4
20260904074133 23 165 0.0 0.0 0.00 0.00 0.00 93 1014.3
20260904073633 23 165 0.0 0.0 0.00 0.00 0.00 93 1014.3
20260904073133 23 165 0.0 0.0 0.00 0.00 0.00 93 1014.3
20260904072633 23 165 0.0 0.0 0.00 0.00 0.00 93 1014.4
20260904072133 23 165 0.0 0.0 0.00 0.00 0.00 93 1014.4
20260904071633 23 165 0.0 0.0 0.00 0.00 0.00 93 1014.4
20260904071133 23 165 0.0 0.0 0.00 0.00 0.00 93 1014.4
20260904070633 23 165 0.0 0.0 0.00 0.00 0.00 93 1014.5
20260904070133 23 165 0.0 0.0 0.00 0.00 0.00 93 1014.5
20260904065633 23 165 0.0 0.0 0.00 0.00 0.00 93 1014.5
20260904065133 23 165 0.0 0.0 0.00 0.00 0.00 93 1014.5
20260904064633 23 165 0.0 0.0 0.00 0.00 0.00 93 1014.5
20260904064133 23 165 0.0 0.0 0.00 0.00 0.00 93 1014.6
20260904063633 23 165 0.0 0.0 0.00 0.00 0.00 93 1014.6
20260904063133 23 165 0.0 0.0 0.00 0.00 0.00 92 1014.7
20260904062633 23 165 0.0 0.0 0.00 0.00 0.00 92 1014.7
20260904062133 23 165 0.0 0.0 0.00 0.00 0.00 92 1014.6
20260904061633 24 165 0.0 0.0 0.00 0.00 0.00 92 1014.6
20260904061133 24 165 0.0 0.0 0.00 0.00 0.00 92 1014.6
20260904060633 24 165 0.0 0.0 0.00 0.00 0.00 92 1014.6
20260904060133 24 165 0.0 0.0 0.00 0.00 0.00 92 1014.7
20260904055633 24 165 0.0 0.0 0.00 0.00 0.00 91 1014.5
20260904055133 25 165 0.0 0.0 0.00 0.00 0.00 90 1014.6
20260904054633 25 165 0.0 0.0 0.00 0.00 0.00 90 1014.7
20260904054133 25 165 0.0 0.0 0.00 0.00 0.00 90 1014.8
20260904053633 25 165 0.0 0.0 0.00 0.00 0.00 90 1014.9
20260904053133 25 165 0.0 0.0 0.00 0.00 0.00 90 1014.8
20260904052633 24 165 0.0 0.0 0.00 0.00 0.00 91 1014.7
20260904052133 24 165 0.0 0.0 0.00 0.00 0.00 91 1014.8
20260904051633 25 165 0.0 0.0 0.00 0.00 0.00 91 1014.8
20260904051133 25 165 0.0 0.0 0.00 0.00 0.00 91 1014.7
20260904050633 25 165 0.0 0.0 0.00 0.00 0.00 90 1014.7
20260904050133 25 165 0.0 0.0 0.00 0.00 0.00 90 1014.7
20260904045633 25 165 0.0 0.0 0.00 0.00 0.00 89 1014.7
20260904045134 25 165 0.0 0.0 0.00 0.00 0.00 89 1014.8
20260904044634 25 165 0.0 0.0 0.00 0.00 0.00 88 1014.8
20260904044134 25 165 0.0 0.0 0.00 0.00 0.00 88 1014.9
20260904043634 25 165 0.0 0.0 0.00 0.00 0.00 88 1014.8
20260904043134 25 165 0.0 0.0 0.00 0.00 0.00 88 1014.7
20260904042634 25 165 0.0 0.0 0.00 0.00 0.00 87 1014.7
20260904042134 26 165 0.0 0.0 0.00 0.00 0.00 87 1014.7
20260904041634 26 165 0.0 0.0 0.00 0.00 0.00 87 1014.8
20260904041134 26 165 0.0 0.0 0.00 0.00 0.00 86 1014.7
20260904040634 26 165 0.0 0.0 0.00 0.00 0.00 86 1014.8
20260904040134 25 165 0.0 0.0 0.00 0.00 0.00 86 1014.8
20260904035634 25 181 0.0 0.0 0.00 0.00 0.00 87 1014.9
20260904035134 25 181 0.0 0.0 0.00 0.00 0.00 87 1014.9
20260904034634 25 181 0.0 0.0 0.00 0.00 0.00 87 1015.0
20260904034134 25 181 0.0 0.0 0.00 0.00 0.00 87 1015.0
20260904033634 26 181 0.0 0.0 0.00 0.00 0.00 86 1014.9
20260904033134 26 181 0.0 0.0 0.00 0.00 0.00 85 1014.9
20260904032634 26 181 0.0 0.0 0.00 0.00 0.00 85 1015.1
20260904032135 26 181 0.0 0.0 0.00 0.00 0.00 84 1015.0
20260904031634 26 181 0.0 0.0 0.00 0.00 0.00 84 1015.0
20260904031134 26 181 0.0 0.0 0.00 0.00 0.00 84 1015.0
20260904030634 26 181 0.0 0.0 0.00 0.00 0.00 83 1015.1
20260904030134 26 181 0.0 0.0 0.00 0.00 0.00 83 1015.1
20260904025634 26 181 0.0 0.0 0.00 0.00 0.00 83 1015.2
20260904025134 26 181 0.0 0.0 0.00 0.00 0.00 82 1015.2
20260904024634 26 181 0.0 0.0 0.00 0.00 0.00 82 1015.2
20260904024134 26 181 0.0 0.0 0.00 0.00 0.00 82 1015.1
20260904023634 27 181 0.0 0.0 0.00 0.00 0.00 82 1015.1
20260904023134 27 181 0.0 0.0 0.00 0.00 0.00 81 1015.1
20260904022634 27 181 0.0 0.0 0.00 0.00 0.00 79 1014.9
20260904022134 27 181 0.0 0.0 0.00 0.00 0.00 79 1014.8
20260904021634 27 181 0.0 0.0 0.00 0.00 0.00 79 1014.9
20260904021134 27 181 0.0 0.0 0.00 0.00 0.00 79 1015.1
20260904020634 27 181 0.0 0.0 0.00 0.00 0.00 78 1015.0
20260904020134 28 181 0.0 0.0 0.00 0.00 0.00 78 1015.0
20260904015634 28 181 0.0 0.0 0.00 0.00 0.00 77 1015.1
20260904015134 28 181 0.0 0.0 0.00 0.00 0.00 77 1015.1
20260904014634 28 181 1.6 3.2 0.00 0.00 0.00 77 1015.0
20260904014134 28 179 1.6 4.8 0.00 0.00 0.00 76 1014.9
20260904013634 28 197 1.6 3.2 0.00 0.00 0.00 77 1014.9
20260904013134 28 198 3.2 6.4 0.00 0.00 0.00 77 1014.9
20260904012634 28 208 3.2 6.4 0.00 0.00 0.00 77 1014.8
20260904012134 28 194 4.8 9.7 0.00 0.00 0.00 77 1014.7
20260904011634 28 205 3.2 8.0 0.00 0.00 0.00 76 1014.6
20260904011134 28 127 1.6 4.8 0.00 0.00 0.00 76 1014.5
20260904010634 28 138 1.6 4.8 0.00 0.00 0.00 76 1014.4
20260904010134 28 38 0.0 1.6 0.00 0.00 0.00 76 1014.5
20260904005634 28 358 1.6 3.2 0.00 0.00 0.00 76 1014.4
20260904005134 29 358 0.0 3.2 0.00 0.00 0.00 76 1014.5
20260904004634 29 353 0.0 3.2 0.00 0.00 0.00 75 1014.5
20260904004134 29 353 0.0 1.6 0.00 0.00 0.00 75 1014.4
20260904003634 30 353 0.0 0.0 0.00 0.00 0.00 74 1014.4
20260904003134 30 353 0.0 0.0 0.00 0.00 0.00 74 1014.4
20260904002634 30 353 0.0 1.6 0.00 0.00 0.00 73 1014.3
20260904002134 30 353 1.6 1.6 0.00 0.00 0.00 73 1014.2
20260904001634 30 353 1.6 3.2 0.00 0.00 0.00 72 1014.3
20260904001134 30 353 1.6 3.2 0.00 0.00 0.00 71 1014.2
20260904000634 30 353 0.0 3.2 0.00 0.00 0.00 70 1014.1
20260904000134 30 353 0.0 0.0 0.00 0.00 0.00 68 1014.1
20260903235634 31 352 0.0 0.0 0.00 0.00 0.00 68 1014.3
20260903235134 31 352 0.0 1.6 0.00 0.00 0.00 68 1014.3
20260903234634 31 352 0.0 1.6 0.00 0.00 0.00 67 1014.3
20260903234134 31 352 0.0 0.0 0.00 0.00 0.00 67 1014.3
20260903233634 31 352 1.6 1.6 0.00 0.00 0.00 65 1014.3
20260903233134 32 352 1.6 1.6 0.00 0.00 0.00 65 1014.2
20260903232634 32 352 1.6 3.2 0.00 0.00 0.00 64 1014.2
20260903232134 32 352 1.6 6.4 0.00 0.00 0.00 64 1014.4
20260903231634 32 3 1.6 4.8 0.00 0.00 0.00 64 1014.4
20260903231134 33 30 1.6 3.2 0.00 0.00 0.00 64 1014.5
20260903230634 33 17 1.6 8.0 0.00 0.00 0.00 64 1014.5
20260903230134 33 120 1.6 6.4 0.00 0.00 0.00 65 1014.6
20260903225634 33 0 1.6 3.2 0.00 0.00 0.00 65 1014.5
20260903225134 33 35 0.0 3.2 0.00 0.00 0.00 65 1014.4
20260903224634 33 3 0.0 1.6 0.00 0.00 0.00 66 1014.2
20260903224134 33 3 0.0 1.6 0.00 0.00 0.00 66 1014.1
20260903223634 33 21 3.2 4.8 0.00 0.00 0.00 67 1013.8
20260903223134 33 249 3.2 9.7 0.00 0.00 0.00 67 1013.7
20260903222634 33 246 1.6 9.7 0.00 0.00 0.00 66 1013.8
20260903222134 32 255 0.0 4.8 0.00 0.00 0.00 66 1013.7
20260903221634 32 300 0.0 1.6 0.00 0.00 0.00 66 1013.7
20260903221134 32 300 0.0 1.6 0.00 0.00 0.00 66 1013.6
20260903220634 32 300 0.0 1.6 0.00 0.00 0.00 66 1013.6
20260903220134 32 300 1.6 4.8 0.00 0.00 0.00 65 1013.8
20260903215634 33 297 3.2 9.7 0.00 0.00 0.00 64 1013.7
20260903215134 33 242 1.6 9.7 0.00 0.00 0.00 61 1013.6
20260903214634 34 195 0.0 1.6 0.00 0.00 0.00 61 1013.5
20260903214134 35 195 0.0 1.6 0.00 0.00 0.00 60 1013.5
20260903213634 35 195 0.0 0.0 0.00 0.00 0.00 59 1013.5
20260903213134 35 195 0.0 1.6 0.00 0.00 0.00 58 1013.6
20260903212634 35 194 0.0 0.0 0.00 0.00 0.00 57 1013.6
20260903212134 35 194 0.0 1.6 0.00 0.00 0.00 57 1013.6
20260903211634 36 194 0.0 3.2 0.00 0.00 0.00 54 1013.7
20260903211134 36 194 0.0 3.2 0.00 0.00 0.00 53 1013.8
20260903210634 36 194 0.0 3.2 0.00 0.00 0.00 53 1013.8
20260903210134 36 193 1.6 3.2 0.00 0.00 0.00 55 1013.8
20260903205634 36 193 1.6 4.8 0.00 0.00 0.00 52 1013.9
20260903205134 36 193 3.2 4.8 0.00 0.00 0.00 51 1013.8
20260903204634 37 200 1.6 4.8 0.00 0.00 0.00 50 1013.8
20260903204134 37 207 1.6 4.8 0.00 0.00 0.00 50 1013.7
20260903203634 37 230 0.0 3.2 0.00 0.00 0.00 51 1013.8
20260903203134 37 219 1.6 1.6 0.00 0.00 0.00 50 1013.8
20260903202634 37 219 1.6 4.8 0.00 0.00 0.00 50 1013.9
20260903202134 37 53 0.0 0.0 0.00 0.00 0.00 50 1014.0
20260903201634 37 53 1.6 3.2 0.00 0.00 0.00 50 1014.2
20260903201134 37 56 1.6 4.8 0.00 0.00 0.00 49 1014.2
20260903200634 38 77 0.0 4.8 0.00 0.00 0.00 49 1014.3
20260903200134 38 6 1.6 4.8 0.00 0.00 0.00 49 1014.3
20260903195634 37 131 3.2 4.8 0.00 0.00 0.00 51 1014.4
20260903195134 37 155 4.8 9.7 0.00 0.00 0.00 49 1014.3
20260903194634 37 162 4.8 8.0 0.00 0.00 0.00 51 1014.5
20260903194134 37 242 4.8 9.7 0.00 0.00 0.00 52 1014.4
20260903193634 36 225 6.4 8.0 0.00 0.00 0.00 53 1014.6
20260903193134 36 227 4.8 8.0 0.00 0.00 0.00 55 1014.7
20260903192634 35 251 3.2 9.7 0.00 0.00 0.00 55 1014.8
20260903192134 35 233 3.2 8.0 0.00 0.00 0.00 56 1014.8
20260903191634 35 244 4.8 8.0 0.00 0.00 0.00 56 1014.8
20260903191134 35 250 4.8 9.7 0.00 0.00 0.00 55 1015.0
20260903190634 36 226 3.2 9.7 0.00 0.00 0.00 55 1015.1
20260903190134 36 240 3.2 6.4 0.00 0.00 0.00 55 1015.1
20260903185634 36 212 3.2 9.7 0.00 0.00 0.00 54 1015.2
20260903185134 37 107 1.6 4.8 0.00 0.00 0.00 53 1015.2
20260903184634 37 101 1.6 4.8 0.00 0.00 0.00 54 1015.1
20260903184134 36 296 0.0 4.8 0.00 0.00 0.00 57 1015.5
20260903183634 36 252 0.0 3.2 0.00 0.00 0.00 58 1015.6
20260903183134 35 251 0.0 1.6 0.00 0.00 0.00 60 1015.5
20260903182634 35 251 0.0 3.2 0.00 0.00 0.00 60 1015.7
20260903182134 35 250 0.0 3.2 0.00 0.00 0.00 59 1015.7
20260903181634 35 344 0.0 0.0 0.00 0.00 0.00 60 1015.7
20260903181134 35 352 1.6 3.2 0.00 0.00 0.00 60 1015.8
20260903180634 35 257 3.2 9.7 0.00 0.00 0.00 60 1015.9
20260903180134 35 260 4.8 8.0 0.00 0.00 0.00 59 1016.0
20260903175634 35 247 4.8 8.0 0.00 0.00 0.00 58 1016.0
20260903175134 36 235 3.2 6.4 0.00 0.00 0.00 56 1016.1
20260903174634 36 211 6.4 6.4 0.00 0.00 0.00 55 1016.1
20260903174134 36 250 9.7 16.1 0.00 0.00 0.00 54 1016.1
20260903173634 36 199 6.4 14.5 0.00 0.00 0.00 55 1016.1
20260903173134 36 186 3.2 12.9 0.00 0.00 0.00 54 1016.1
20260903172634 36 136 3.2 9.7 0.00 0.00 0.00 54 1016.3
20260903172134 36 57 4.8 11.3 0.00 0.00 0.00 55 1016.4
20260903171634 36 140 6.4 11.3 0.00 0.00 0.00 55 1016.5
20260903171134 36 171 4.8 14.5 0.00 0.00 0.00 55 1016.5
20260903170634 36 82 3.2 8.0 0.00 0.00 0.00 57 1016.5
20260903170134 36 252 3.2 6.4 0.00 0.00 0.00 56 1016.5
20260903165634 36 68 3.2 8.0 0.00 0.00 0.00 56 1016.6
20260903165134 36 59 3.2 8.0 0.00 0.00 0.00 55 1016.7
20260903164634 36 150 3.2 4.8 0.00 0.00 0.00 56 1016.7
20260903164134 36 244 4.8 9.7 0.00 0.00 0.00 56 1016.8
20260903163634 35 174 4.8 11.3 0.00 0.00 0.00 57 1017.0
20260903163134 35 178 4.8 12.9 0.00 0.00 0.00 58 1017.0
20260903162634 35 161 4.8 12.9 0.00 0.00 0.00 59 1017.1
20260903162134 35 237 4.8 9.7 0.00 0.00 0.00 61 1017.0
20260903161634 35 248 4.8 9.7 0.00 0.00 0.00 60 1017.0
20260903161134 35 238 6.4 8.0 0.00 0.00 0.00 61 1017.0
20260903160634 35 188 6.4 8.0 0.00 0.00 0.00 62 1017.2
20260903160134 35 238 3.2 9.7 0.00 0.00 0.00 61 1017.1
20260903155634 36 210 1.6 4.8 0.00 0.00 0.00 60 1017.0
20260903155134 35 200 3.2 6.4 0.00 0.00 0.00 61 1016.9
20260903154634 36 107 1.6 6.4 0.00 0.00 0.00 60 1016.9
20260903154134 36 37 1.6 3.2 0.00 0.00 0.00 61 1016.9
20260903153634 35 54 1.6 4.8 0.00 0.00 0.00 60 1017.0
20260903153134 35 10 1.6 4.8 0.00 0.00 0.00 62 1017.0
20260903152634 35 1 1.6 3.2 0.00 0.00 0.00 62 1017.1